Home > Weather > Lancaster > Past weeks

Flag for USA Past Weather in Lancaster, California, USA — Yesterday and Last 2 Weeks

Now
100 °F

Passing clouds.


Feels Like: 95 °F
Forecast: 76 / 105 °F
Wind: 21 mph from Southwest

Location: Lancaster / Fox Field

Current Time: Jul 25, 2016 at 5:51:54 PM

Latest Report: Jul 25, 2016 at 4:56 PM


Visibility: 10 mi

Pressure: 29.85 "Hg (27.58 "Hg at 718m altitude)

Humidity: 12%

Dew Point: 39 °F

Location of LancasterLocation

Past Weather in Lancaster — Graph

°F

Lancaster Temperature Yesterday

Maximum temperature yesterday: 99 °F (at 11:56 AM)
Minimum temperature yesterday: 74 °F (at 2:56 AM)
Average temperature yesterday: 88 °F

High & Low Weather Summary for the Past Weeks

 TemperatureHumidityPressure
High108 °F (Jul 23, 2:56 PM)50% (Jul 13, 5:56 AM)30.02 "Hg (Jul 13, 5:56 AM)
Low61 °F (Jul 13, 5:56 AM)4% (Jul 17, 10:56 AM)29.76 "Hg (Jul 23, 3:56 PM)
Average84 °F18%29.90 "Hg
* Reported Jul 10 3:56 PM — Jul 25 3:56 PM, Lancaster, Weather by CustomWeather, © 2016

Note: Actual official high and low records may vary slightly from our data, if they occured in-between our weather recording intervals... More about our weather records

Advertising

Lancaster Weather History for the Previous 24 Hours

Scroll right to see more
 ConditionsComfort  
Time TempWeatherWind HumidityBarometerVisibility
3:56 PM
Mon, Jul 25
100 °FSunny.24 mph12%29.85 "Hg10 mi
2:56 PM100 °FSunny.23 mph10%29.87 "Hg2 mi
1:56 PM99 °FMostly cloudy.24 mph8%29.90 "Hg2 mi
12:56 PM97 °FSunny.23 mph10%29.91 "Hg4 mi
11:56 AM96 °FSunny.25 mph10%29.91 "Hg4 mi
10:56 AM94 °FSunny.24 mph10%29.93 "Hg8 mi
9:56 AM92 °FSunny.18 mph10%29.93 "Hg10 mi
8:56 AM91 °FSunny.15 mph10%29.92 "Hg6 mi
7:56 AM84 °FSunny.13 mph18%29.91 "Hg10 mi
6:56 AM78 °FClear.13 mph25%29.91 "Hg10 mi
5:56 AM77 °FClear.13 mph24%29.90 "Hg10 mi
4:56 AM78 °FClear.10 mph22%29.88 "Hg10 mi
3:56 AM80 °FClear.14 mph20%29.88 "Hg10 mi
2:56 AM79 °FClear.8 mph18%29.88 "Hg10 mi
1:56 AM80 °FClear.12 mph21%29.88 "Hg10 mi
12:56 AM80 °FClear.12 mph24%29.89 "Hg10 mi
11:56 PM
Sun, Jul 24
81 °FClear.14 mph28%29.88 "Hg10 mi
10:56 PM81 °FClear.14 mph30%29.88 "Hg10 mi
9:56 PM83 °FClear.13 mph22%29.88 "Hg10 mi
8:56 PM84 °FSunny.14 mph22%29.87 "Hg10 mi
7:56 PM88 °FSunny.20 mph18%29.85 "Hg10 mi
6:56 PM92 °FHaze.22 mph13%29.85 "Hg1 mi
5:56 PM95 °FSunny.24 mph9%29.85 "Hg10 mi
Weather by CustomWeather, © 2016

See weather overviewHow to use our weather pages